Regional Weather Roundup
Issued by NWS

Home | Current Version | Previous Version | Graphics & Text | Print | Product List | Glossary On
Versions: 1 2 3 4 5 6 7 8 9 10 11 12 13 14 15 16 17 18 19 20 21 22 23 24 25 26 27 28 29 30 31 32 33 34 35 36 37 38 39 40 41 42 43 44 45 46 47 48 49 50
568
ASUS43 KOAX 170410
RWRNE

WEATHER ROUNDUP FOR NEBRASKA
NATIONAL WEATHER SERVICE OMAHA NE
1000 PM CST MON JAN 16 2017

NOTES: SATELLITE DATA IS BEING USED TO AUGMENT CLOUD COVER ABOVE
       12000 FEET.
       "FAIR" INDICATES FEW OR NO CLOUDS BELOW 12,000 FEET WITH NO
       SIGNIFICANT WEATHER AND/OR OBSTRUCTIONS TO VISIBILITY.

  * THESE STATIONS DO NOT REPORT WEATHER SUCH AS RAIN...SNOW OR FOG.

NEZ001>004-019>022-054>056-170500-
NEBRASKA PANHANDLE

CITY           SKY/WX    TMP DP  RH WIND       PRES   REMARKS
SCOTTSBLUFF    CLOUDY    23  17  78 NW6       30.10F WCI  16
ALLIANCE       CLOUDY    15  11  83 CALM      30.07F
CHADRON        CLOUDY    12   8  84 W6        30.10S WCI   3
KIMBALL        CLOUDY    24  17  77 NW8       30.09S WCI  14
SIDNEY         CLOUDY    25  17  72 NW12      30.09S WCI  14
$$

NEZ057>060-069>072-079>082-170500-
SOUTHWEST NEBRASKA

CITY           SKY/WX    TMP DP  RH WIND       PRES   REMARKS
NORTH PLATTE   CLEAR     28  21  75 NW10      30.06S WCI  19
IMPERIAL       CLOUDY    33  24  69 NW10      30.08R WCI  25
LEXINGTON      CLOUDY    33  26  75 N13       30.04S WCI  24
MCCOOK         CLOUDY    33  29  85 NW12      30.06R WCI  24
OGALLALA       CLEAR     32  23  70 W3        30.08S
$$

NEZ005>010-023>029-035>040-094-170500-
NORTH CENTRAL NEBRASKA

CITY           SKY/WX    TMP DP  RH WIND       PRES   REMARKS
VALENTINE      CLEAR     19  13  77 W9        30.05F WCI   8
AINSWORTH      CLOUDY    20  17  86 W6        30.04S WCI  12
BROKEN BOW     CLOUDY    30  21  69 NW17      30.03S WCI  18
O`NEILL        CLOUDY    23  18  81 NW10      30.03S WCI  12
ORD            CLOUDY    28  20  71 NW14      30.03R WCI  17
THEDFORD       CLEAR     27  20  74 NW7       30.05S WCI  19
$$

NEZ041-046>049-061>064-073>077-083>087-170500-
SOUTH CENTRAL NEBRASKA

CITY           SKY/WX    TMP DP  RH WIND       PRES   REMARKS
GRAND ISLAND     N/A    N/A N/A N/A MISG        N/A
AURORA         CLOUDY    32  31  95 NW5       30.00S WCI  27
HASTINGS       CLOUDY    33  29  85 N16G23    30.01S WCI  23
HEBRON         CLOUDY    32  32  99 N5        30.00R WCI  28
HOLDREGE       CLOUDY    32  28  83 N5        30.02S WCI  27
KEARNEY *      CLOUDY    32  25  74 CALM      30.02S
YORK           PTCLDY    32  32 100 CALM      30.00S
$$

NEZ011>018-030>034-042>045-170500-
NORTHEAST NEBRASKA

CITY           SKY/WX    TMP DP  RH WIND       PRES   REMARKS
NORFOLK        CLOUDY    28  23  81 NW13      29.99R WCI  17
ALBION         CLOUDY    29  23  79 NW8       30.00S HAZE    WCI  21
BLAIR          MIX PCPN  33  32  97 N6        29.94F WCI  27
FREMONT        MIX PCPN  32  32 100 NW8       29.98S WCI  25
TEKAMAH        LGT RAIN  33  31  92 NW9       29.97S FOG     WCI  25
WAYNE          CLOUDY    29  27  91 NW5       29.99R WCI  24
$$

NEZ050>053-065>068-078-088>093-170500-
SOUTHEAST NEBRASKA

CITY           SKY/WX    TMP DP  RH WIND       PRES   REMARKS
LINCOLN        CLOUDY    33  32  96 NW8       30.00R FOG     WCI  26
OMAHA EPPLEY   CLOUDY    33  30  88 NW12      29.97R WCI  24
BEATRICE       CLOUDY    33  33  98 NW6       29.97F FOG     WCI  28
FALLS CITY     CLOUDY    34  33  96 NW9       29.95R WCI  27
NEBRASKA CITY  CLOUDY    33  33 100 N10G16    29.94S FOG     WCI  24
PLATTSMOUTH    CLOUDY    33  31  93 NW10      29.94S WCI  25
$$

NEZ044-045-051>053-067-170500-
OMAHA AREA

CITY           SKY/WX    TMP DP  RH WIND       PRES   REMARKS
OMAHA EPPLEY   CLOUDY    33  30  88 NW12      29.97R WCI  24
BLAIR          MIX PCPN  33  32  97 N6        29.94F WCI  27
FREMONT        MIX PCPN  32  32 100 NW8       29.98S WCI  25
MILLARD        DRIZZLE   35  33  92 NW7       29.96S WCI  29
OFFUTT AFB     CLOUDY    34  34 100 NW8       29.95R WCI  27
PLATTSMOUTH    CLOUDY    33  31  93 NW10      29.94S WCI  25
WAHOO          CLOUDY    32  32  99 N14       29.97S FOG     WCI  22
$$




USA.gov is the U.S. government's official web portal to all federal, state and local government web resources and services.